Location: Newark
(46.4800°N, 89.7900°W)
Time: 20:16:55
(UTC+00:00)

Envisat - Visible Passes

Search period start: 22 January 2020 00:00
Search period end: 01 February 2020 00:00
Orbit: 764 x 766 km, 98.1° (Epoch: 22 January)

Date Brightness Start Highest point End Pass type
(mag) Time Alt. Az. Time Alt. Az. Time Alt. Az.
22 Jan 5.6 01:00:26 10° SW 01:04:08 20° W 01:07:52 10° NW visible
22 Jan 6.1 11:27:08 10° NE 11:30:14 16° E 11:33:18 10° SE visible
23 Jan 4.4 00:22:16 10° SSW 00:27:03 41° W 00:31:53 10° NNW visible
23 Jan 3.8 12:27:58 10° NNE 12:32:59 56° E 12:37:58 10° S visible
23 Jan 3.1 23:45:06 10° SSE 23:50:11 87° WSW 23:55:18 10° NNW visible
24 Jan 6.3 01:28:12 10° WSW 01:29:58 12° W 01:31:43 10° WNW visible
24 Jan 5.3 11:51:43 10° NE 11:56:00 27° E 12:00:16 10° SSE visible
25 Jan 5.3 00:48:35 10° SSW 00:52:44 25° W 00:56:54 10° NW visible
25 Jan 6.2 11:16:35 10° ENE 11:18:47 13° E 11:20:59 10° ESE visible
25 Jan 3.0 12:53:23 10° NNE 12:58:30 87° WNW 13:03:35 10° SSW visible
26 Jan 3.9 00:10:47 10° S 00:15:43 52° W 00:20:42 10° NNW visible
26 Jan 4.3 12:16:46 10° NNE 12:21:39 44° E 12:26:30 10° S visible
26 Jan 3.0 23:33:50 10° SSE 23:38:54 76° ENE 23:44:00 10° N visible
27 Jan 6.1 01:15:40 10° WSW 01:18:31 15° W 01:21:21 10° NW visible
27 Jan 5.7 11:40:42 10° NE 11:44:36 22° E 11:48:27 10° SE visible
28 Jan 5.0 00:36:53 10° SSW 00:41:21 31° W 00:45:51 10° NNW visible
28 Jan 3.3 12:42:06 10° NNE 12:47:13 76° ESE 12:52:17 10° S visible
28 Jan 3.5 23:59:22 10° S 00:04:23 65° WSW 00:09:28 10° NNW visible
29 Jan 4.8 12:05:37 10° NNE 12:10:18 36° E 12:14:57 10° SSE visible
30 Jan 5.8 01:03:35 10° SW 01:07:05 19° W 01:10:36 10° NW visible
30 Jan 6.0 11:29:49 10° NE 11:33:11 17° E 11:36:31 10° SE visible
31 Jan 4.6 00:25:16 10° SSW 00:29:59 38° W 00:34:44 10° NNW visible
31 Jan 3.7 12:30:51 10° NNE 12:35:54 61° E 12:40:55 10° S visible
31 Jan 3.2 23:48:00 10° S 23:53:05 81° WSW 23:58:12 10° NNW visible
